Regional Weather Roundup
Issued by NWS

Home | Current Version | Previous Version | Text Only | Print | Product List | Glossary On
Versions: 1 2 3 4 5 6 7 8 9 10 11 12 13 14 15 16 17 18 19 20 21 22 23 24 25 26 27 28 29 30 31 32 33 34 35 36 37 38 39 40 41 42 43 44 45 46 47 48 49 50
571
ASUS44 KLIX 280610
RWRLA
LOUISIANA WEATHER ROUNDUP
NATIONAL WEATHER SERVICE NEW ORLEANS LA
100 AM CDT MON JUL 28 2014

NOTE: "FAIR" INDICATES FEW OR NO CLOUDS BELOW 12,000 FEET WITH NO
      SIGNIFICANT WEATHER AND/OR OBSTRUCTIONS TO VISIBILITY.
      SKY/WX - SKY CONDITION AND SIGNIFICANT WEATHER.
      TMP - AIR TEMPERATURE.    DP   - DEWPOINT TEMPERATURE.
      RH  - RELATIVE HUMIDITY.  PRES - PRESSURE.
      HX  - HEAT INDEX.         WCI  - WIND CHILL INDEX.

*  THESE STATIONS ARE NOT NWS OR FAA STATIONS AND ARE NOT UNDER
   NWS QUALITY CONTROL.

LAZ040-048-061>063-065-066-069-280700-
SOUTHEAST LOUISIANA

CITY           SKY/WX    TMP DP  RH WIND       PRES   REMARKS
N.O. AUDUBON     N/A     81  78  91 MISG        N/A
N.O. INTL ARPT PTCLDY    81  77  88 SW9       30.06F
6HR MIN TEMP:  81; 6HR MAX TEMP:  87;

N.O. LAKEFRONT PTCLDY    84  77  79 SW12      30.06F
6HR MIN TEMP:  84; 6HR MAX TEMP:  88;

N.O. DOWNTOWN* MOCLDY    82  73  74 SW3       30.07F
6HR MIN TEMP:  82; 6HR MAX TEMP:  90;

SLIDELL        CLEAR     83  77  82 VRB3      30.04F
6HR MIN TEMP:  83; 6HR MAX TEMP:  90;

BATON ROUGE    PTCLDY    80  76  87 SW8       30.05F
6HR MIN TEMP:  80; 6HR MAX TEMP:  89;

BOOTHVILLE     CLEAR     83  76  79 W9        30.07F
6HR MIN TEMP:  83; 6HR MAX TEMP:  85;

BELLE CHASSE   PTCLDY    82  75  79 W5        30.05F
6HR MIN TEMP:  81; 6HR MAX TEMP:  87;

BOGALUSA*      FAIR      81  75  82 W5        30.05F
6HR MIN TEMP:  81; 6HR MAX TEMP:  91;

GALLIANO*      NOT AVBL
NEW ROADS*     FAIR      79  76  90 SW5       30.05F
6HR MIN TEMP:  78; 6HR MAX TEMP:  90;

GONZALES*      FAIR      80  79  98 CALM      30.06S
6HR MIN TEMP:  80; 6HR MAX TEMP:  86;

HAMMOND*       PTCLDY    82  75  78 W6        30.06F
HOUMA*         CLEAR     80  74  82 CALM      30.07F
6HR MIN TEMP:  80; 6HR MAX TEMP:  88;

PORT FOURCHON* PTCLDY    84  75  74 W12       30.09S

$$

LAZ041-044-053-054-280700-
SOUTHWEST LOUISIANA

CITY           SKY/WX    TMP DP  RH WIND       PRES   REMARKS
LAKE CHARLES   CLEAR     81  76  84 SW5       30.06S
6HR MIN TEMP:  81; 6HR MAX TEMP:  88;

LAFAYETTE      CLEAR     81  76  84 SW6       30.06F
6HR MIN TEMP:  81; 6HR MAX TEMP:  90;

PATTERSON      CLEAR     79  77  94 SW5       30.11F
6HR MIN TEMP:  79; 6HR MAX TEMP:  84;

SALT POINT       N/A     87  76  69 W6        30.07S HX  97
6HR MIN TEMP:  87; 6HR MAX TEMP:  89;

NEW IBERIA     CLEAR     79  75  87 SW5       30.07F
6HR MIN TEMP:  79; 6HR MAX TEMP:  89;

CHENAULT AIRPK CLEAR     82  75  78 SW6       30.07S
6HR MIN TEMP:  82; 6HR MAX TEMP:  89;


$$

LAZ027-028-280700-
CENTRAL LOUISIANA

CITY           SKY/WX    TMP DP  RH WIND       PRES   REMARKS
FORT POLK      CLEAR     79  75  87 SW6       30.05S
6HR MIN TEMP:  79; 6HR MAX TEMP:  91;

ALEXANDRIA INT CLEAR     80  76  87 SW9       30.01F
6HR MIN TEMP:  80; 6HR MAX TEMP:  91;

ALEXANDRIA     CLEAR     81  75  82 SW5       30.03F
6HR MIN TEMP:  79; 6HR MAX TEMP:  92;


$$

LAZ001-002-280700-
NORTHWEST LOUISIANA

CITY           SKY/WX    TMP DP  RH WIND       PRES   REMARKS
SHREVEPORT     MOCLDY    81  73  76 CALM      30.02R
6HR MIN TEMP:  80; 6HR MAX TEMP:  92;

BARKSDALE AFB  PTCLDY    80  73  78 CALM      30.03R
6HR MIN TEMP:  79; 6HR MAX TEMP:  93;

DTN SHREVEPORT PTCLDY    83  71  67 CALM      30.02R
6HR MIN TEMP:  83; 6HR MAX TEMP:  91;


$$

LAZ014-016-280700-
NORTHEAST LOUISIANA

CITY           SKY/WX    TMP DP  RH WIND       PRES   REMARKS
MONROE         PTCLDY    82  74  76 W3        30.01S
6HR MIN TEMP:  80; 6HR MAX TEMP:  92;

TALLULAH       CLEAR     77  74  90 CALM      30.00S
6HR MIN TEMP:  77; 6HR MAX TEMP:  90;


$$




USA.gov is the U.S. government's official web portal to all federal, state and local government web resources and services.